Weather History for Port Weller, ON

Change the Weather History Date:

Tuesday, December 4, 2012

  Actual Average Record
Temperature  
Mean Temperature 54 °F -  
Max Temperature 63 °F - - ()
Min Temperature 44 °F - - ()
Degree Days  
Heating Degree Days 12    
Growing Degree Days 4 (Base 50)    
Moisture  
Dew Point 48 °F    
Average Humidity 81    
Maximum Humidity 97    
Minimum Humidity 52    
Precipitation  
Precipitation 0.08 in - - ()
Sea Level Pressure  
Sea Level Pressure 29.94 in    
Wind  
Wind Speed 7 mph ()    
Max Wind Speed 14 mph    
Max Gust Speed 25 mph    
T = Trace of Precipitation, MM = Missing Value Source: Averaged Metar Reports

Daily Weather History Graph

Daily Weather History Graph

Search for Another Location

Airport:

Trip Planner

Search our weather history database for the weather conditions in past years. The results will help you decide how hot, cold, wet, or windy it might be!

Date:

Astronomy

Dec. 04, 2012 Rise Set
Actual Time 7:32 AM EST 4:41 PM EST
Civil Twilight 7:00 AM EST 5:13 PM EST
Nautical Twilight 6:25 AM EST 5:49 PM EST
Astronomical Twilight 5:50 AM EST 6:23 PM EST
Moon 10:33 PM EST (12/4) 11:20 AM EST (12/4)
Length of Visible Light 10h 13m
Length of Day
9h 08m
Waning Gibbous, 69% of the Moon is Illuminated
Dec 4
Waning Gibbous
Dec 6
Last Quarter
Dec 13
New
Dec 20
First Quarter
Dec 28
Full

Hourly Weather History & Observations

Time (EST) Temp. Windchill Dew Point Humidity Pressure Visibility Wind Dir Wind Speed Gust Speed Precip Events Conditions
12:00 AM 44.4 °F 42.9 °F 42.8 °F 94% 30.02 in - WSW 3.5 mph - N/A   Unknown
1:00 AM 44 °F - 43 °F 95% 30.00 in - West 1.2 mph - -  
1:00 AM 44.4 °F - 43.0 °F 95% 30.00 in - West 1.2 mph - N/A   Unknown
2:00 AM 51.8 °F - 50.7 °F 96% 29.99 in - WSW 3.5 mph - N/A   Unknown
3:00 AM 60.1 °F - 52.7 °F 77% 29.98 in - South 12.7 mph 19.6 mph N/A   Unknown
4:00 AM 60 °F - 51 °F 64% 29.96 in - SSW 12.7 mph - -  
4:00 AM 59.5 °F - 50.9 °F 73% 29.96 in - SSW 12.7 mph 21.9 mph N/A   Unknown
5:00 AM 60.1 °F - 50.7 °F 71% 29.95 in - South 13.8 mph 21.9 mph N/A   Unknown
6:00 AM 59.9 °F - 50.4 °F 71% 29.94 in - South 13.8 mph 20.7 mph N/A   Unknown
7:00 AM 58 °F - 49 °F 63% 29.94 in - SSW 9.2 mph - -  
7:00 AM 58.3 °F - 48.9 °F 71% 29.94 in - SSW 9.2 mph - N/A   Unknown
8:00 AM 58.5 °F - 48.4 °F 69% 29.94 in - SSW 9.2 mph 18.4 mph N/A   Unknown
9:00 AM 59.7 °F - 48.7 °F 67% 29.94 in - SSW 10.4 mph 18.4 mph N/A   Unknown
10:00 AM 62 °F - 49 °F 52% 29.94 in - SSW 10.4 mph - -  
10:00 AM 61.7 °F - 48.7 °F 62% 29.94 in - SSW 10.4 mph 20.7 mph N/A   Unknown
11:00 AM 63.1 °F - 49.3 °F 61% 29.91 in - SSW 12.7 mph 25.3 mph N/A   Unknown
12:00 PM 59.9 °F - 49.1 °F 67% 29.90 in - SW 11.5 mph 23.0 mph N/A   Unknown
1:00 PM 54 °F - 49 °F 78% 29.89 in - SW 6.9 mph - -  
1:00 PM 54.3 °F - 49.1 °F 83% 29.89 in - SW 6.9 mph - N/A   Unknown
2:00 PM 53.2 °F - 49.6 °F 88% 29.88 in - SW 6.9 mph - N/A   Unknown
3:00 PM 51.1 °F - 49.3 °F 94% 29.89 in - SW 5.8 mph - 0.02 in   Unknown
4:00 PM 50 °F - 49 °F 95% 29.89 in - SW 4.6 mph - -  
4:00 PM 50.0 °F - 48.9 °F 96% 29.89 in - SW 4.6 mph - 0.03 in   Unknown
5:00 PM 50.0 °F - 49.1 °F 97% 29.91 in - SW 4.6 mph - N/A   Unknown
6:00 PM 49.8 °F - 48.9 °F 97% 29.92 in - SW 5.8 mph - 0.02 in   Unknown
7:00 PM 47 °F - 46 °F 92% 29.94 in - WSW 6.9 mph - -  
7:00 PM 47.3 °F - 45.5 °F 93% 29.94 in - WSW 6.9 mph - 0.02 in   Unknown
8:00 PM 48.0 °F - 45.5 °F 91% 29.94 in - SW 4.6 mph - N/A   Unknown
9:00 PM 48.0 °F - 43.5 °F 84% 29.95 in - SW 8.1 mph - N/A   Unknown
10:00 PM 46 °F - 42 °F 83% 29.95 in - WSW 6.9 mph - -  
10:00 PM 46.4 °F 42.9 °F 42.4 °F 86% 29.95 in - WSW 6.9 mph - N/A   Unknown
11:00 PM 45.3 °F 41.1 °F 41.7 °F 87% 29.97 in - WSW 8.1 mph - N/A   Unknown